カタログに戻る

COSMOS 1275 DEB

運用中PO
NORAD 42105·DEBRIS·🇷🇺 Russia

打ち上げ Jun 4, 1981 から Plesetsk Cosmodrome

Loading…

次のパス (今後24時間)

TLE

最新Source: Space-Track

元期: Sep 11, 2026, 23:32 UTC

1 42105U 81053PR  26254.98068815  .00000762  00000-0  86160-3 0  9992
2 42105  82.9780 330.7275 0175773 164.6139 316.7844 13.62897996276698

AllMySatでCOSMOS 1275 DEBをリアルタイム追跡

Download on the App Store